Home > Weather > Kaliningrad > Past weeks

Flag for Russia Weather for the Past 2 Weeks in Kaliningrad, Russia

Now
36 °F

Clear.


Feels Like: 36 °F
Forecast: 42 / 56 °F
Wind: 1 mph from South

Location: Kaliningrad/Khrabrovo Airport

Current Time: Apr 30, 2016 at 4:09:44 AM

Latest Report: Apr 30, 2016 at 3:00 AM


Visibility: 10 mi

Pressure: 30.27 "Hg

Humidity: 93%

Dew Point: 34 °F

Location of KaliningradLocation

Historic Weather in Kaliningrad — Graph

°F

Kaliningrad Temperature Yesterday

Maximum temperature yesterday: 54 °F (at 12:00 PM)
Minimum temperature yesterday: 34 °F (at 4:30 AM)
Average temperature yesterday: 46 °F

High & Low Weather Summary for the Past Weeks

 TemperatureHumidityPressure
High66 °F (Apr 16, 4:00 PM)100% (Apr 17, 2:00 AM)30.27 "Hg (Apr 17, 2:00 AM)
Low28 °F (Apr 21, 5:00 AM)28% (Apr 16, 3:00 PM)29.56 "Hg (Apr 27, 1:00 AM)
Average45 °F72%29.84 "Hg
* Reported Apr 15 3:00 AM — Apr 30 3:00 AM, Kaliningrad, Weather by CustomWeather, © 2016

Note: Actual official high and low records may vary slightly from our data, if they occured in-between our weather recording intervals... More about our weather records

Advertising

Kaliningrad Weather History for the Previous 24 Hours

Scroll right to see more
 ConditionsComfort  
Time TempWeatherWind HumidityBarometerVisibility
3:00 AM
Sat, Apr 30
36 °FClear.1 mph93%30.27 "Hg10 mi
2:00 AM37 °FClear.3 mph93%30.27 "Hg10 mi
1:00 AM37 °FClear.1 mph93%30.27 "Hg10 mi
12:00 AM39 °FClear.3 mph87%30.27 "Hg10 mi
11:00 PM
Fri, Apr 29
41 °FClear.3 mph81%30.27 "Hg10 mi
10:30 PM41 °FClear.3 mph81%30.27 "Hg10 mi
10:00 PM43 °FClear.6 mph81%30.27 "Hg10 mi
9:30 PM43 °FClear.6 mph81%30.27 "Hg10 mi
9:00 PM43 °FSunny.6 mph81%30.27 "Hg10 mi
8:30 PM45 °FSunny.6 mph81%30.27 "Hg10 mi
8:00 PM46 °FSunny.8 mph76%30.24 "Hg10 mi
7:30 PM50 °FClear.8 mph67%30.24 "HgN/A
7:00 PM52 °FPassing clouds.10 mph62%30.24 "HgN/A
6:30 PM52 °FPassing clouds.13 mph62%30.24 "HgN/A
6:00 PM54 °FPassing clouds.8 mph58%30.24 "HgN/A
5:30 PM52 °FPassing clouds.10 mph62%30.24 "HgN/A
5:00 PM54 °FScattered clouds.10 mph58%30.24 "HgN/A
4:30 PM54 °FPartly sunny.10 mph54%30.24 "HgN/A
4:00 PM54 °FPartly sunny.10 mph47%30.24 "HgN/A
3:30 PM54 °FPartly sunny.13 mph47%30.21 "HgN/A
3:00 PM54 °FPartly sunny.10 mph58%30.21 "HgN/A
2:30 PM54 °FPartly sunny.10 mph54%30.21 "HgN/A
2:00 PM50 °FPartly sunny.10 mph62%30.21 "HgN/A
1:30 PM52 °FPartly sunny.10 mph67%30.21 "HgN/A
1:00 PM50 °FPartly sunny.6 mph62%30.21 "HgN/A
12:30 PM52 °FPartly sunny.1 mph47%30.21 "HgN/A
12:00 PM54 °FScattered clouds.6 mph44%30.21 "HgN/A
11:00 AM52 °FPassing clouds.6 mph58%30.21 "HgN/A
10:00 AM48 °FPassing clouds.6 mph66%30.18 "HgN/A
9:30 AM46 °FSunny.6 mph76%30.18 "Hg10 mi
9:00 AM45 °FPassing clouds.6 mph71%30.18 "HgN/A
8:30 AM43 °FPassing clouds.3 mph76%30.18 "HgN/A
8:00 AM41 °FPassing clouds.3 mph81%30.15 "HgN/A
7:00 AM39 °FPassing clouds.6 mph87%30.15 "HgN/A
6:00 AM34 °FClear.1 mph100%30.12 "Hg10 mi
5:00 AM34 °FClear.8 mph100%30.12 "Hg10 mi
4:30 AM34 °FPassing clouds.3 mph100%30.09 "HgN/A
4:00 AM36 °FClear.3 mph93%30.09 "Hg10 mi
Weather by CustomWeather, © 2016

See weather overviewHow to use our weather pages